Presure
213 195 170 188 170 185 189 176 164 164 167 168 169 172 178 178 174 174 173 168 178 177 196 200 195 191 181 180 180 185 186 182 168 171 176 179 193 187 173 174 182 183 162 84 85
209 173 191 171 166 180 166 153 152 153 168 168 177 176 176 173 179 171 178 179 172 173 176 182 196 200 202 200 189 184 181 175 175 177 180 186 194 190 177 177 176 179 180 147 90
221 184 188 157 187 166 157 155 180 163 157 162 161 158 158 182 161 166 179 178 184 189 180 180 182 191 199 207 201 191 186 169 174 177 180 188 193 193 176 171 176 177 176 181 183
166 174 162 171 159 182 160 164 181 172 161 165 174 166 177 182 189 198 196 178 177 191 196 189 208 189 185 196 205 211 187 189 171 177 175 185 192 195 178 167 175 178 177 130 185
171 180 166 172 179 172 182 176 176 186 181 186 218 223 223 214 248 219 179 218 198 213 213 211 210 202 200 189 199 200 205 194 186 175 179 179 186 192 182 172 167 180 172 176 132
171 192 187 186 170 182 171 176 185 198 226 244 231 254 412 490 478 470 475 396 248 254 232 229 214 224 225 194 206 200 200 211 194 194 178 183 182 189 181 177 171 175 173 170 173
195 189 163 188 176 181 171 182 201 225 244 236 267 490 468 442 432 427 421 427 451 468 363 226 224 238 224 224 208 211 195 199 209 200 196 127 62 184 178 179 176 174 177 175 170
178 172 183 179 173 176 176 198 210 234 232 252 377 461 428 409 391 387 388 391 406 417 445 383 267 230 250 223 217 220 217 195 176 199 209 196 192 88 185 177 177 180 171 183 177
187 185 182 176 173 177 189 203 218 211 237 269 472 436 405 372 354 353 351 349 363 383 396 417 426 337 277 237 223 216 222 205 193 206 201 206 195 189 191 185 177 180 177 176 176
196 186 182 179 171 181 201 208 240 249 239 275 455 429 384 356 330 320 323 332 327 347 363 374 408 428 326 297 232 229 179 212 211 190 204 195 190 208 197 196 182 179 180 178 178
186 184 178 176 173 188 202 211 238 247 244 348 441 402 376 344 321 307 388 403 389 387 396 408 366 399 431 329 327 219 235 219 207 208 191 200 195 187 223 203 199 181 184 180 183
188 169 175 180 184 190 201 211 235 249 252 341 417 402 376 348 319 296 361 363 375 362 376 391 383 368 403 386 327 274 232 232 165 209 194 191 125 193 62 226 206 198 193 186 178
186 167 173 181 185 196 202 215 225 248 247 335 439 404 363 346 312 295 359 351 390 370 350 377 379 377 366 404 368 328 274 224 93 222 203 213 180 198 200 205 223 205 197 199 181
170 170 173 176 186 195 203 222 225 249 244 333 414 376 374 339 298 318 359 393 470 449 420 392 375 363 371 371 415 344 324 233 219 220 227 199 212 176 189 209 206 224 207 200 202
172 172 175 175 190 197 204 222 239 244 236 338 427 394 360 334 299 364 344 459 471 463 451 442 417 359 367 362 382 426 336 327 231 229 212 217 210 204 188 190 208 204 223 207 203
168 171 178 185 190 196 205 217 244 247 236 321 414 391 351 315 295 348 328 479 465 364 344 432 429 418 347 373 361 389 399 328 314 230 225 215 218 225 192 196 200 202 212 225 208
168 174 173 188 185 194 207 216 243 240 238 320 420 405 354 316 305 331 490 489 467 342 432 431 421 418 400 376 369 364 408 343 314 247 236 221 221 221 224 214 191 206 199 207 224
165 182 177 191 184 197 206 223 243 240 234 322 348 402 360 309 329 322 477 480 385 335 433 421 411 404 496 395 424 366 365 391 324 315 196 226 220 234 218 224 199 185 198 201 194
164 180 182 190 186 196 202 233 246 241 274 320 322 411 365 311 336 323 488 476 349 324 427 413 397 384 498 523 532 350 355 387 368 318 296 229 225 230 227 216 219 213 190 197 201
167 171 188 184 186 198 202 260 245 234 231 322 316 424 377 318 327 327 495 377 328 411 427 403 395 373 482 497 489 429 359 355 399 344 306 260 232 220 228 208 223 216 205 189 197
172 171 189 183 189 195 210 257 250 236 232 320 318 397 386 327 318 328 490 353 326 420 426 402 392 487 481 479 472 440 359 355 368 385 319 308 242 63 224 221 208 210 222 202 195
177 173 187 181 188 196 214 224 254 240 263 311 323 327 398 340 304 332 405 347 331 403 419 402 389 464 466 473 468 457 406 382 345 383 343 316 316 235 228 226 217 209 215 217 201
176 179 181 178 185 195 212 222 244 240 262 299 318 307 408 356 310 330 317 363 341 314 421 395 386 371 472 463 473 442 403 387 342 358 367 327 318 276 231 228 224 217 214 219 209
168 178 179 176 182 195 209 219 251 248 240 280 301 306 373 370 327 292 328 389 356 326 428 406 390 354 468 450 458 455 400 389 365 338 367 359 327 313 249 235 234 225 217 225 214
163 183 180 177 185 204 207 224 242 254 240 269 298 313 287 388 340 299 339 451 379 344 317 412 389 374 475 463 445 462 396 384 379 379 339 399 361 319 275 246 238 231 223 218 215
166 188 180 179 185 207 211 224 233 264 249 266 280 308 297 400 359 319 286 324 447 369 333 339 389 380 354 467 470 440 409 385 377 374 374 345 384 348 308 258 241 235 226 218 219
169 184 181 183 191 208 211 218 233 258 250 266 274 301 309 324 380 330 303 341 302 405 358 324 407 384 369 477 469 463 438 403 379 380 372 361 350 373 333 285 250 240 233 226 223
Wind_Speed
30 29 29 27 27 29 26 26 30 35 39 43 47 48 52 58 62 64 66 69 67 70 70 73 78 83 81 78 75 73 64 57 64 70 74 74 64 55 60 59 52 46 55 48 49
32 35 32 26 23 31 26 37 43 48 47 51 57 60 63 69 71 71 71 74 78 78 79 79 79 81 81 82 81 75 66 64 70 76 81 79 67 59 57 59 58 55 56 55 56
38 38 36 32 38 32 37 43 53 47 57 57 64 69 73 81 76 77 81 81 84 87 88 89 87 85 82 80 81 79 72 75 76 80 83 81 71 63 62 60 64 66 62 53 50
41 41 39 40 33 50 39 47 60 56 61 64 72 77 83 89 89 92 92 85 85 93 96 91 95 89 87 83 83 81 81 79 84 85 84 82 75 65 63 70 69 67 62 62 53
47 44 43 48 50 50 59 59 63 75 74 78 82 84 82 81 90 101 69 95 93 103 104 104 101 94 93 89 89 83 82 82 91 88 87 83 78 69 66 71 73 68 67 63 64
48 48 53 56 52 63 58 69 77 80 89 88 82 92 74 53 54 53 55 75 104 107 112 110 107 109 105 91 93 91 89 85 92 93 89 87 83 72 71 72 76 73 73 72 68
53 58 45 60 61 69 63 78 84 94 94 86 102 52 49 51 51 52 51 53 54 61 92 113 112 116 107 107 95 96 91 91 90 94 93 56 13 76 78 75 78 77 76 74 72
61 58 63 63 62 73 78 86 92 96 90 98 89 48 45 44 46 45 46 50 52 53 57 88 112 115 114 110 106 103 102 89 77 94 92 94 86 29 84 81 82 82 81 75 74
66 68 70 69 71 79 86 91 97 91 97 106 49 47 44 45 47 46 41 44 49 49 52 61 76 98 110 115 115 105 98 93 97 99 95 92 90 93 93 87 86 86 86 82 79
65 71 74 78 75 85 92 98 105 107 101 112 49 44 47 44 45 47 43 40 43 49 50 55 62 74 102 111 115 112 77 100 103 97 98 93 91 94 97 95 92 93 91 87 83
72 73 77 80 81 90 95 103 107 108 106 99 46 47 42 43 40 40 39 36 36 41 47 49 59 68 80 108 107 107 117 108 104 109 96 98 96 99 97 100 99 97 95 89 85
73 72 79 84 88 92 98 104 111 115 114 102 55 46 45 44 43 42 44 38 34 39 44 47 56 65 70 93 106 112 116 117 74 105 94 99 60 103 37 100 100 99 97 94 91
74 74 80 86 90 96 102 107 109 116 115 102 46 45 47 44 42 45 39 42 37 37 42 47 51 59 67 74 100 107 113 116 41 114 108 113 97 101 105 100 100 100 99 97 93
75 78 84 88 93 100 104 110 111 117 114 101 56 54 46 48 46 47 42 43 36 32 37 41 52 56 62 73 79 105 108 122 119 119 120 105 109 98 102 102 100 99 100 99 96
76 82 86 89 95 102 106 113 118 116 115 102 54 54 55 52 48 54 46 42 36 30 26 32 40 57 61 69 76 79 107 109 127 126 121 123 118 108 106 100 102 101 100 99 97
78 84 88 94 97 103 107 113 117 116 115 102 62 56 57 59 57 56 52 36 30 26 27 25 31 41 61 65 72 79 93 109 114 131 135 121 114 117 106 107 98 103 100 100 98
79 86 87 95 96 103 109 114 115 117 118 102 63 56 58 58 61 57 43 33 22 30 28 24 25 34 50 63 68 78 82 109 116 140 134 125 124 120 116 114 100 104 105 102 100
78 86 90 93 95 104 109 117 115 113 114 102 85 58 60 59 62 61 41 32 26 24 20 21 20 28 20 54 57 77 86 96 118 121 100 129 125 126 116 120 108 101 103 105 102
79 87 93 95 98 106 109 116 113 112 113 103 99 60 60 64 68 65 37 30 23 26 19 19 16 25 16 19 32 75 86 92 110 117 128 139 136 129 121 118 121 115 105 105 106
80 85 92 94 100 107 108 109 106 108 111 106 101 62 64 66 68 67 33 35 27 22 15 16 14 20 16 17 38 65 83 93 95 118 125 142 139 121 125 110 122 116 112 106 105
81 85 91 94 102 105 111 105 105 107 110 108 103 76 67 69 69 68 30 40 37 25 17 15 12 11 12 17 36 62 80 92 97 101 124 127 139 12 124 122 115 111 117 112 108
82 85 91 94 101 105 109 112 108 109 114 109 104 102 66 71 69 67 41 44 41 25 18 17 15 7 11 15 30 56 70 82 98 97 121 127 126 140 132 129 124 116 114 117 113
80 85 90 93 99 105 109 110 108 108 115 111 106 101 66 71 70 69 67 47 44 40 20 18 15 11 9 12 19 58 68 80 98 101 105 125 125 139 139 134 131 122 115 117 115
78 84 87 90 99 105 108 110 110 108 109 115 108 102 85 69 71 68 67 48 45 43 19 18 17 9 6 12 17 41 67 73 89 101 101 111 123 126 144 138 138 133 121 123 117
76 85 87 91 98 103 106 110 111 109 108 116 112 105 100 65 71 70 69 40 44 43 39 17 17 14 6 9 18 21 68 72 78 84 102 85 110 124 141 145 141 135 131 122 118
77 84 87 92 96 102 104 108 109 110 112 115 116 109 101 67 70 71 68 67 33 42 41 31 17 16 10 8 15 25 70 74 77 82 85 102 93 118 127 145 146 145 138 126 124
77 84 87 93 96 100 101 107 109 112 113 116 115 110 103 103 69 73 70 68 66 38 38 37 14 16 14 7 10 19 32 69 75 78 85 91 102 98 122 137 149 148 146 140 131
Wind_Direction
326 324 328 324 320 316 311 306 287 283 285 283 279 277 278 270 264 261 256 253 255 252 254 249 248 247 246 244 243 240 237 237 240 242 243 240 235 221 223 226 220 218 222 224 222
331 337 328 337 318 331 296 284 283 278 294 289 297 290 281 269 268 255 258 254 249 248 246 247 245 245 245 244 242 240 235 230 232 235 238 240 234 224 218 225 223 217 222 221 224
329 333 329 328 328 315 285 281 319 288 279 281 277 274 273 277 266 260 259 253 254 251 246 245 243 243 242 242 241 239 233 229 229 232 236 238 234 224 217 220 224 220 218 220 220
343 337 325 341 312 329 303 313 319 311 281 279 290 273 278 277 275 269 266 262 260 256 254 250 247 243 242 240 238 236 232 228 231 230 234 237 234 226 217 217 223 223 217 221 220
344 335 334 338 334 331 325 326 320 314 305 296 296 289 289 289 281 267 260 260 260 257 256 254 252 249 241 241 238 232 231 228 229 231 231 233 234 225 218 219 222 224 219 218 223
344 331 331 331 333 336 327 327 320 314 317 316 305 306 304 298 290 283 275 263 255 249 251 249 252 248 243 244 238 234 230 227 227 228 231 231 232 225 221 220 222 222 220 218 218
332 337 334 334 340 337 325 325 322 323 325 319 319 314 307 301 295 289 281 272 263 254 243 248 248 243 245 243 241 233 235 228 228 226 227 231 260 229 222 221 224 223 223 221 219
340 337 340 343 339 338 331 326 329 327 325 328 325 316 310 304 297 291 285 278 269 257 249 238 240 245 236 241 240 236 231 233 232 229 225 228 226 235 227 220 222 224 222 223 220
337 338 340 344 341 336 331 333 330 329 331 333 324 322 317 310 303 298 288 278 272 261 247 243 236 233 236 235 236 238 234 232 234 231 226 225 224 226 227 223 222 224 221 221 219
336 337 341 343 339 335 335 335 335 334 336 336 327 324 320 314 309 303 296 284 271 263 251 241 238 231 229 230 233 232 226 231 228 234 229 225 224 226 226 225 222 223 223 220 220
336 339 344 342 338 337 338 337 337 339 340 340 328 324 318 314 309 301 307 295 274 263 257 246 236 232 225 225 224 232 227 232 228 227 229 226 222 227 223 224 224 224 224 221 220
336 342 345 339 338 339 340 338 341 341 343 344 335 327 323 322 321 315 311 297 281 264 255 250 239 232 228 224 224 223 227 226 227 230 227 226 222 226 245 221 223 223 225 223 220
338 343 344 340 339 340 342 339 343 344 345 346 336 332 328 323 324 322 308 298 290 270 254 247 241 233 227 224 221 221 221 226 237 226 226 225 223 225 226 222 222 223 223 223 221
340 345 343 344 341 343 343 342 345 345 347 348 343 342 334 331 330 327 319 314 306 284 266 247 239 234 227 223 221 218 218 219 226 226 224 227 225 224 228 223 222 222 224 223 222
341 344 343 344 342 344 344 345 345 346 349 350 344 342 340 339 338 333 325 326 313 300 275 261 242 233 228 222 220 217 217 216 220 223 226 226 224 221 225 225 221 222 222 223 222
343 344 343 341 344 345 345 346 346 347 350 353 347 345 342 342 342 336 330 327 315 291 268 266 250 235 226 221 217 215 214 215 213 220 222 225 226 222 224 227 221 222 221 221 222
344 341 346 342 345 346 346 347 346 349 349 353 350 345 343 346 342 338 334 332 318 303 293 285 256 237 226 220 216 213 212 213 214 215 221 224 225 223 219 223 221 222 223 222 221
345 339 344 344 346 347 348 347 349 349 349 355 355 348 345 349 346 343 339 335 323 304 299 284 261 240 239 219 214 211 209 211 213 213 217 222 226 221 220 218 221 217 222 222 224
345 342 343 346 348 348 349 349 349 350 354 357 358 352 350 352 351 349 342 338 338 323 308 295 266 234 250 232 208 211 209 210 212 212 211 217 223 222 220 220 219 220 221 223 222
344 346 343 347 349 348 348 350 349 350 350 358 358 353 355 357 356 354 345 352 350 337 320 301 284 241 250 231 205 205 208 209 210 212 212 213 219 223 222 221 221 220 221 222 223
343 346 345 348 348 348 349 353 353 351 351 1 0 359 356 360 359 359 351 355 352 342 335 322 313 280 249 227 204 200 209 208 209 210 213 213 214 209 221 221 223 223 220 222 224
341 345 347 349 348 348 350 350 357 355 360 3 2 2 358 0 2 1 358 356 354 345 337 330 330 270 254 232 208 200 204 208 209 210 213 214 212 216 221 222 222 222 222 220 223
342 345 347 350 349 349 352 352 357 356 1 4 5 4 359 360 4 3 3 357 357 356 342 341 336 326 248 231 219 197 201 208 208 210 212 214 212 208 218 221 222 224 222 221 221
344 345 346 350 350 349 353 352 358 360 358 4 6 6 5 360 3 5 4 358 358 358 344 341 340 315 263 226 213 206 202 207 210 210 211 214 214 210 212 219 220 223 224 222 221
344 344 347 350 349 351 352 355 359 1 358 5 6 7 7 2 3 5 4 0 359 357 358 342 340 342 272 233 211 208 201 206 210 213 211 212 214 212 209 214 219 221 225 223 222
343 345 348 350 348 352 353 356 358 2 2 6 7 7 7 3 2 5 6 6 359 357 357 355 338 338 323 250 220 204 203 206 210 214 214 213 215 216 211 211 216 219 223 224 224
344 345 348 349 347 353 354 357 359 4 4 6 7 8 8 10 1 5 6 6 5 359 357 354 333 331 337 286 238 213 204 208 212 212 215 214 215 215 216 210 214 217 219 224 225